Regional Weather Roundup
Issued by NWS Kansas City/Pleasant Hill, MO

Home | Current Version | Previous Version | Text Only | Print | Product List | Glossary On
Versions: 1 2 3 4 5 6 7 8 9 10 11 12 13 14 15 16 17 18 19 20 21 22 23 24 25 26 27 28 29 30 31 32 33 34 35 36 37 38 39 40 41 42 43 44 45 46 47 48 49 50
426
ASUS43 KEAX 261910
RWREAX

WEATHER ROUNDUP FOR EASTERN KANSAS AND NORTHWEST MISSOURI
NATIONAL WEATHER SERVICE KANSAS CITY/PLEASANT HILL MO
200 PM CDT FRI MAY 26 2017

KSZ040-057-103>105-MOZ028-029-037-043-262000-
...KANSAS CITY METROPOLITAN AREA...

CITY           SKY/WX    TMP DP  RH WIND       PRES   REMARKS
K.C. INTL      MOSUNNY   80  65  59 VRB3      29.75S
K.C. DOWNTOWN  MOSUNNY   82  65  56 N5        29.74R
LEES SUMMIT    PTSUNNY   81  66  60 NE3       29.75S
OLATHE - IXD   MOSUNNY   79  64  60 N3        29.76S
OLATHE - OJC   MOSUNNY   79  65  62 VRB5      29.76S
LAWRENCE       MOSUNNY   83  65  54 VRB3      29.75R

$$

MOZ001>008-011>017-020>025-030>033-038>040-044>046-053-054-262000-
...NORTHERN AND CENTRAL MISSOURI...

CITY           SKY/WX    TMP DP  RH WIND       PRES   REMARKS
ST. JOSEPH     MOSUNNY   83  63  50 NE9       29.75S
MOSBY          PTCLDY    81  61  50 N6        29.74S
WARRENSBURG    PTSUNNY   77  63  61 CALM      29.74S
WHITEMAN AFB   PTSUNNY   79  68  69 W7        29.74S
CLINTON        CLOUDY    79  66  65 SW5       29.76R
SEDALIA        CLOUDY    78  67  68 CALM      29.76R
WARSAW         NOT AVBL
CHILLICOTHE      N/A     81  66  60 NE7       29.74R
KIRKSVILLE     PTSUNNY   80  64  58 NW8       29.74S

$$

MOZ041-047>049-056>058-063>065-088>090-097-262000-
...EASTERN AND SOUTHERN MISSOURI...

CITY           SKY/WX    TMP DP  RH WIND       PRES   REMARKS
ST. LOUIS INTL PTSUNNY   85  64  49 S12G17    29.73S
SPIRIT OF STL  CLOUDY    82  67  60 S6        29.72R
COLUMBIA       CLOUDY    78  66  66 W8        29.75R
JEFFERSON CITY CLOUDY    82  65  56 W7        29.73R
ROLLA          CLOUDY    77  68  73 SW8       29.75R
OSAGE BEACH    CLOUDY    77  68  73 W6        29.76R
SPRINGFIELD    CLOUDY    77  66  68 SW7       29.77R
BRANSON        CLOUDY    81  66  61 SW8       29.79S
JOPLIN         CLOUDY    81  70  69 SW8       29.76S
WEST PLAINS    CLOUDY    75  65  70 S13       29.81R

$$

IAZ060-094-KSZ022-034>040-054-083-096-NEZ052-066-093-262000-
...KANSAS...SOUTHEAST NEBRASKA AND IOWA...

CITY           SKY/WX    TMP DP  RH WIND       PRES   REMARKS
TOPEKA         PTSUNNY   82  66  58 VRB6      29.76R
MANHATTAN      MOSUNNY   81  65  58 CALM      29.78S
EMPORIA        SUNNY     82  64  54 NE8       29.77R
CHANUTE        MOSUNNY   85  66  53 VRB5      29.76R
WICHITA        SUNNY     84  60  44 N15       29.78R
OMAHA          MOSUNNY   78  55  44 N18       29.79S
LINCOLN        SUNNY     78  51  38 N13       29.83R
FALLS CITY     MOSUNNY   80  60  50 N8        29.76R
LAMONI         MOSUNNY   79  63  57 N7        29.76S
DES MOINES     MOSUNNY   78  60  53 N3        29.76F

$$





USA.gov is the U.S. government's official web portal to all federal, state and local government web resources and services.